Regional Weather Roundup
Issued by NWS Nashville, TN

Current Version | Previous Version | Text Only | Print | Product List | Glossary On
Versions: 1 2 3 4 5 6 7 8 9 10 11 12 13 14 15 16 17 18 19 20 21 22 23 24 25 26 27 28 29 30 31 32 33 34 35 36 37 38 39 40 41 42 43 44 45 46 47 48 49 50
000
ASUS44 KOHX 272110
RWROHX
MIDDLE TENNESSEE HOURLY WEATHER ROUNDUP
NATIONAL WEATHER SERVICE NASHVILLE TN
400 PM CDT THU APR 27 2017

NOTE: "FAIR" INDICATES FEW OR NO CLOUDS BELOW 12,000 FEET WITH
NO SIGNIFICANT WEATHER AND/OR OBSTRUCTIONS TO VISIBILITY.

* THESE REPORTS ARE NOT UNDER NWS QUALITY CONTROL AND MAY NOT
  REPORT WEATHER SUCH AS PRECIPITATION AND FOG.


TNZ005>011-023>034-057-059-062>066-078-080-272200
...NORTHERN MIDDLE TENNESSEE...

CITY           SKY/WX    TMP DP  RH WIND       PRES   REMARKS
CLARKSVILLE    MOSUNNY   63  48  58 SW10G17   29.83F
CROSSVILLE     MOSUNNY   72  51  47 W15G22    29.82R
GALLATIN       PTSUNNY   70  52  52 SW8       29.84S
DICKSON        SUNNY     63  49  60 W8        29.83S
LEBANON        MOSUNNY   70  53  54 W8        29.80R
NASHVILLE      MOSUNNY   71  52  50 VRB7      29.82S
PORTLAND       MOSUNNY   64  54  68 VRB7G15   29.82R
SMYRNA         MOSUNNY   72  54  53 W7        29.82R
SPARTA         MOSUNNY   73  54  49 W9G18     29.79R
SPRINGFIELD    MOSUNNY   64  52  63 W10       29.83R
WEST NASHVILLE SUNNY     68  50  52 SW9       29.82R
$$
TNZ056-058-060-061-075>077-079-093>097-272200
...SOUTHERN MIDDLE TENNESSEE...

CITY           SKY/WX    TMP DP  RH WIND       PRES   REMARKS
COLUMBIA         N/A     68  55  64 SW8       29.82S
FAYETTEVILLE   SUNNY     72  55  56 VRB7      29.82R
MCMINNVILLE    SUNNY     73  55  53 W10       29.81R
MURFREESBORO   SUNNY     73  49  42 W9        29.80R
SHELBYVILLE    MOSUNNY   75  57  53 W13       29.82S
TULLAHOMA      MOSUNNY   73  52  46 W12G23    29.82S
WINCHESTER     MOSUNNY   73  57  56 W8        29.81S
$$


...KEY TO REMARKS...
VSB - VISIBILITY IN MILES
WCI - WIND CHILL INDEX
HX  - HEAT INDEX




USA.gov is the U.S. government's official web portal to all federal, state and local government web resources and services.